Location: Saint-Palais-sur-Mer
(45.6429°N, 1.0859°W)
Time: 01:08:55
(UTC+01:00)

Tiros 1 despin weight - Pass Details

Date: 09 February 2026
Orbit: 556 x 593 km, 48.2° (Epoch: 13 March)

Event Time Altitude Azimuth Distance (km) Brightness Sun altitude
Rises 00:22:43 0° 288° (WNW) 2,748 - -56.9°
Reaches altitude 10° 00:24:58 10° 287° (WNW) 1,855 - -57.1°
Maximum altitude 00:29:12 77° 203° (SSW) 585 - -57.4°
Drops below altitude 10° 00:33:29 10° 117° (ESE) 1,873 - -57.7°
Sets 00:35:45 0° 116° (ESE) 2,776 - -57.8°
